TimeCST,TemperatureF,Dew PointF,Humidity,Sea Level PressureIn,VisibilityMPH,Wind Direction,Wind SpeedMPH,Gust SpeedMPH,PrecipitationIn,Events,Conditions,WindDirDegrees,DateUTC
12:53 AM,30.9,28.0,89,30.41,10.0,Calm,Calm,-,N/A,,Partly Cloudy,0,2013-11-14 06:53:00
1:53 AM,30.0,28.0,92,30.40,10.0,Calm,Calm,-,N/A,,Scattered Clouds,0,2013-11-14 07:53:00
2:53 AM,30.0,28.0,92,30.39,10.0,Calm,Calm,-,N/A,,Partly Cloudy,0,2013-11-14 08:53:00
3:53 AM,30.0,28.0,92,30.37,10.0,Calm,Calm,-,N/A,,Scattered Clouds,0,2013-11-14 09:53:00
4:53 AM,28.9,27.0,92,30.35,9.0,Calm,Calm,-,N/A,,Partly Cloudy,0,2013-11-14 10:53:00
5:53 AM,28.0,26.1,92,30.33,9.0,Calm,Calm,-,N/A,,Partly Cloudy,0,2013-11-14 11:53:00
6:53 AM,28.9,26.1,89,30.33,10.0,West,3.5,-,N/A,,Partly Cloudy,260,2013-11-14 12:53:00
7:53 AM,30.9,28.9,92,30.32,10.0,Calm,Calm,-,N/A,,Partly Cloudy,0,2013-11-14 13:53:00
8:53 AM,41.0,33.1,73,30.32,10.0,Calm,Calm,-,N/A,,Scattered Clouds,0,2013-11-14 14:53:00
9:53 AM,48.9,34.0,56,30.31,10.0,SSE,5.8,-,N/A,,Scattered Clouds,150,2013-11-14 15:53:00
10:53 AM,53.1,32.0,45,30.29,10.0,SSE,4.6,-,N/A,,Mostly Cloudy,160,2013-11-14 16:53:00
11:53 AM,57.0,28.9,34,30.23,10.0,SSE,9.2,-,N/A,,Mostly Cloudy,150,2013-11-14 17:53:00
12:53 PM,59.0,32.0,36,30.17,10.0,South,11.5,-,N/A,,Overcast,170,2013-11-14 18:53:00
1:53 PM,59.0,36.0,42,30.15,10.0,South,9.2,19.6,N/A,,Overcast,190,2013-11-14 19:53:00
2:53 PM,62.1,39.0,43,30.13,10.0,South,10.4,16.1,N/A,,Mostly Cloudy,190,2013-11-14 20:53:00
3:53 PM,62.1,43.0,50,30.12,10.0,South,11.5,-,N/A,,Scattered Clouds,190,2013-11-14 21:53:00
4:53 PM,59.0,43.0,55,30.11,10.0,South,11.5,-,N/A,,Scattered Clouds,170,2013-11-14 22:53:00
5:53 PM,55.0,44.1,67,30.10,10.0,SSE,4.6,-,N/A,,Partly Cloudy,160,2013-11-14 23:53:00
6:53 PM,55.9,45.0,67,30.09,10.0,SSE,5.8,-,N/A,,Mostly Cloudy,160,2013-11-15 00:53:00
7:53 PM,54.0,45.0,72,30.10,10.0,Calm,Calm,-,N/A,,Mostly Cloudy,0,2013-11-15 01:53:00
8:53 PM,54.0,46.9,77,30.09,10.0,Calm,Calm,-,N/A,,Mostly Cloudy,0,2013-11-15 02:53:00
9:53 PM,55.0,48.0,77,30.08,9.0,South,3.5,-,0.00,,Overcast,170,2013-11-15 03:53:00
10:15 PM,55.4,48.2,77,30.08,9.0,Calm,Calm,-,N/A,,Overcast,0,2013-11-15 04:15:00
10:53 PM,55.9,50.0,80,30.08,10.0,South,3.5,-,N/A,,Overcast,190,2013-11-15 04:53:00
11:53 PM,55.9,50.0,80,30.05,10.0,SSE,5.8,-,N/A,,Mostly Cloudy,150,2013-11-15 05:53:00